Powrót do katalogu

SL-14 R/B

AktywnyPO
NORAD 17912·ROCKET BODY·🇷🇺 Russia

Wystrzelony Apr 27, 1987 z Plesetsk Cosmodrome

Loading…

Następne Przeloty (najbliższe 24 godziny)

TLE

ŚwieżeSource: Space-Track

Epoka: Sep 14, 2026, 22:05 UTC

1 17912U 87038B   26257.92019244  .00000248  00000-0  25936-4 0  9992
2 17912  82.4998 118.5563 0017694 258.4066 101.5164 14.85496178107323

Śledź SL-14 R/B w czasie rzeczywistym z AllMySat

Download on the App Store